Minneapolis Flying Cloud, MN

12:17 AM CST on November 22, 2017 (GMT -0600)
Flying Cloud

Weather History for KFCM - September, 2014

Change the Weather History Date:

Friday, September 5, 2014

  Actual Average Record
Temperature  
Mean Temperature 60 °F -  
Max Temperature 66 °F 78 °F 91 °F (1998)
Min Temperature 55 °F 56 °F 48 °F (2011)
Degree Days  
Heating Degree Days 4    
Growing Degree Days 10 (Base 50)    
Moisture  
Dew Point 50 °F    
Average Humidity 69    
Maximum Humidity 86    
Minimum Humidity 56    
Precipitation  
Precipitation 0.00 in - - ()
Sea Level Pressure  
Sea Level Pressure 30.09 in    
Wind  
Wind Speed 10 mph (NW)    
Max Wind Speed 17 mph    
Max Gust Speed 24 mph    
Visibility 10 miles    
Events      
Averages and records for this station are not official NWS values.
T = Trace of Precipitation, MM = Missing Value Source: NWS Daily Summary

Daily Weather History Graph

Daily Weather History Graph

Search for Another Location

Airport or City:

Trip Planner

Search our weather history database for the weather conditions in past years. The results will help you decide how hot, cold, wet, or windy it might be!

Date:

Astronomy

Sep. 05, 2014 Rise Set
Actual Time 6:40 AM CDT 7:43 PM CDT
Civil Twilight 6:10 AM CDT 8:13 PM CDT
Nautical Twilight 5:35 AM CDT 8:48 PM CDT
Astronomical Twilight 4:57 AM CDT 9:26 PM CDT
Moon 5:18 PM CDT (9/5) 2:28 AM CDT (9/5)
Length of Visible Light 14h 02m
Length of Day
13h 02m
Waxing Gibbous, 84% of the Moon is Illuminated
Sep 5
Waxing Gibbous
Sep 8
Full
Sep 15
Last Quarter
Sep 24
New
Oct 1
First Quarter

Hourly Weather History & Observations

Time (CDT) Temp. Dew Point Humidity Pressure Visibility Wind Dir Wind Speed Gust Speed Precip Events Conditions
12:53 AM 66.0 °F 54.0 °F 65% 29.90 in 10.0 mi WNW 12.7 mph - N/A   Clear
1:53 AM 64.0 °F 53.1 °F 67% 29.92 in 10.0 mi West 8.1 mph - N/A   Clear
2:53 AM 60.1 °F 53.1 °F 78% 29.95 in 10.0 mi West 8.1 mph - N/A   Clear
4:53 AM 59.0 °F 52.0 °F 78% 30.00 in 10.0 mi WNW 8.1 mph - N/A   Clear
5:53 AM 57.9 °F 50.0 °F 75% 30.02 in 10.0 mi NNW 9.2 mph 17.3 mph N/A   Clear
7:53 AM 57.0 °F 48.9 °F 74% 30.07 in 10.0 mi WNW 12.7 mph 19.6 mph N/A   Scattered Clouds
8:13 AM 57.2 °F 50.0 °F 77% 30.08 in 10.0 mi NW 12.7 mph 19.6 mph N/A   Mostly Cloudy
8:53 AM 57.9 °F 48.9 °F 72% 30.08 in 10.0 mi NNW 17.3 mph 24.2 mph N/A   Overcast
9:53 AM 57.9 °F 50.0 °F 75% 30.08 in 10.0 mi NNW 9.2 mph - N/A   Partly Cloudy
10:53 AM 61.0 °F 50.0 °F 67% 30.10 in 10.0 mi NNW 11.5 mph 19.6 mph N/A   Overcast
11:53 AM 62.1 °F 50.0 °F 65% 30.10 in 10.0 mi NNW 13.8 mph - N/A   Overcast
12:53 PM 63.0 °F 51.1 °F 65% 30.12 in 10.0 mi NW 9.2 mph - N/A   Mostly Cloudy
1:53 PM 63.0 °F 50.0 °F 63% 30.13 in 10.0 mi NW 11.5 mph - N/A   Scattered Clouds
2:53 PM 64.0 °F 48.9 °F 58% 30.14 in 10.0 mi NW 9.2 mph - N/A   Mostly Cloudy
3:53 PM 64.0 °F 48.9 °F 58% 30.14 in 10.0 mi NNW 9.2 mph - N/A   Partly Cloudy
5:53 PM 64.9 °F 48.9 °F 56% 30.13 in 10.0 mi WNW 6.9 mph - N/A   Clear
6:53 PM 64.0 °F 50.0 °F 60% 30.13 in 10.0 mi WNW 6.9 mph - N/A   Clear
7:53 PM 62.1 °F 48.9 °F 62% 30.14 in 10.0 mi WNW 6.9 mph - N/A   Clear
8:53 PM 59.0 °F 48.0 °F 67% 30.14 in 10.0 mi WNW 3.5 mph - N/A   Clear
9:53 PM 57.0 °F 50.0 °F 77% 30.16 in 10.0 mi Calm Calm - N/A   Clear
10:53 PM 55.0 °F 50.0 °F 83% 30.17 in 10.0 mi West 3.5 mph - N/A   Clear
11:53 PM 55.0 °F 51.1 °F 86% 30.19 in 10.0 mi West 3.5 mph - N/A   Clear